| time (UTC) | temp C | wind direction | speed KPH | gust KPH | rain 1hr cm | rain 24hr cm | rain mn cm | humidity % | barometer mb |
| 20260508030023 | 12 | 355 | 8.0 | 19.3 | 0.00 | 1.42 | 1.42 | 46 | 1007.9 |
| 20260508024502 | 12 | 2 | 6.4 | 17.7 | 0.00 | 1.42 | 1.42 | 47 | 1008.0 |
| 20260508023002 | 12 | 346 | 9.7 | 22.5 | 0.00 | 1.42 | 1.42 | 46 | 1007.9 |
| 20260508021505 | 12 | 360 | 8.0 | 20.9 | 0.00 | 1.42 | 1.42 | 47 | 1007.9 |
| 20260508020109 | 12 | 2 | 8.0 | 19.3 | 0.00 | 1.42 | 1.42 | 47 | 1007.8 |
| 20260508014628 | 13 | 347 | 4.8 | 20.9 | 0.00 | 1.42 | 1.42 | 48 | 1007.8 |
| 20260508013014 | 13 | 354 | 8.0 | 20.9 | 0.00 | 1.42 | 1.42 | 49 | 1007.6 |
| 20260508011528 | 13 | 342 | 9.7 | 27.4 | 0.00 | 1.42 | 1.42 | 48 | 1007.3 |
| 20260508010037 | 13 | 333 | 8.0 | 24.1 | 0.00 | 1.42 | 1.42 | 47 | 1007.3 |
| 20260508004525 | 13 | 337 | 9.7 | 19.3 | 0.00 | 1.42 | 1.42 | 48 | 1007.1 |
| 20260508003024 | 14 | 300 | 6.4 | 19.3 | 0.00 | 1.42 | 1.42 | 45 | 1007.1 |
| 20260508001520 | 14 | 360 | 8.0 | 20.9 | 0.00 | 1.42 | 1.42 | 43 | 1005.9 |
| 20260507234545 | 15 | 343 | 6.4 | 22.5 | 0.00 | 1.60 | 1.42 | 41 | 1005.9 |
| 20260507233055 | 15 | 8 | 6.4 | 17.7 | 0.00 | 1.60 | 1.42 | 43 | 1005.9 |
| 20260507231524 | 16 | 345 | 6.4 | 24.1 | 0.00 | 1.60 | 1.42 | 41 | 1005.7 |
| 20260507230039 | 16 | 16 | 8.0 | 20.9 | 0.00 | 1.78 | 1.42 | 43 | 1005.5 |
| 20260507224512 | 14 | 356 | 3.2 | 12.9 | 0.00 | 1.78 | 1.42 | 65 | 1005.3 |
| 20260507223100 | 13 | 285 | 8.0 | 22.5 | 0.00 | 1.78 | 1.42 | 73 | 1005.3 |
| 20260507221540 | 13 | 124 | 9.7 | 27.4 | 0.00 | 1.78 | 1.42 | 76 | 1005.5 |
| 20260507220020 | 12 | 243 | 19.3 | 38.6 | 0.00 | 1.78 | 1.42 | 76 | 1005.4 |
| 20260507214513 | 12 | 239 | 19.3 | 35.4 | 0.00 | 1.78 | 1.42 | 75 | 1005.2 |
| 20260507213036 | 13 | 248 | 17.7 | 32.2 | 0.00 | 1.78 | 1.42 | 76 | 1005.2 |
| 20260507211535 | 12 | 124 | 22.5 | 40.2 | 0.00 | 1.78 | 1.42 | 75 | 1005.1 |
| 20260507210013 | 13 | 257 | 19.3 | 37.0 | 0.00 | 1.78 | 1.42 | 74 | 1005.1 |
| 20260507204522 | 13 | 258 | 14.5 | 27.4 | 0.00 | 1.78 | 1.42 | 73 | 1004.9 |
| 20260507203005 | 12 | 235 | 17.7 | 32.2 | 0.00 | 1.78 | 1.42 | 74 | 1005.0 |
| 20260507201556 | 12 | 124 | 22.5 | 35.4 | 0.00 | 1.78 | 1.42 | 74 | 1005.0 |
| 20260507200035 | 12 | 252 | 14.5 | 29.0 | 0.00 | 1.78 | 1.42 | 76 | 1005.0 |
| 20260507194538 | 12 | 250 | 19.3 | 40.2 | 0.00 | 1.78 | 1.42 | 77 | 1005.2 |
| 20260507193027 | 12 | 124 | 22.5 | 33.8 | 0.00 | 1.78 | 1.42 | 75 | 1005.5 |
| 20260507191519 | 13 | 254 | 22.5 | 33.8 | 0.00 | 1.78 | 1.42 | 76 | 1005.8 |
| 20260507190035 | 12 | 124 | 22.5 | 35.4 | 0.00 | 1.78 | 1.42 | 78 | 1006.0 |
| 20260507184534 | 12 | 262 | 22.5 | 37.0 | 0.00 | 1.78 | 1.42 | 80 | 1006.2 |
| 20260507183049 | 12 | 124 | 20.9 | 40.2 | 0.00 | 1.78 | 1.42 | 83 | 1006.4 |
| 20260507181543 | 12 | 269 | 17.7 | 38.6 | 0.00 | 1.78 | 1.42 | 83 | 1006.5 |
| 20260507180050 | 12 | 266 | 22.5 | 45.1 | 0.00 | 1.78 | 1.42 | 83 | 1006.6 |
| 20260507174519 | 13 | 262 | 20.9 | 35.4 | 0.00 | 1.78 | 1.42 | 84 | 1006.6 |
| 20260507173003 | 13 | 235 | 16.1 | 25.7 | 0.00 | 1.78 | 1.42 | 83 | 1006.8 |
| 20260507171510 | 12 | 124 | 11.3 | 29.0 | 0.00 | 1.78 | 1.42 | 84 | 1007.1 |
| 20260507164551 | 12 | 124 | 16.1 | 25.7 | 0.00 | 1.78 | 1.42 | 83 | 1007.4 |
| 20260507163111 | 13 | 228 | 14.5 | 24.1 | 0.00 | 1.78 | 1.42 | 81 | 1007.4 |
| 20260507161603 | 13 | 314 | 11.3 | 24.1 | 0.00 | 1.78 | 1.42 | 82 | 1007.6 |
| 20260507160059 | 15 | 267 | 1.6 | 12.9 | 0.00 | 1.78 | 1.42 | 72 | 1007.6 |
| 20260507154541 | 15 | 300 | 6.4 | 11.3 | 0.00 | 1.78 | 1.42 | 69 | 1007.9 |
| 20260507153106 | 14 | 326 | 0.0 | 8.0 | 0.00 | 1.78 | 1.42 | 74 | 1008.0 |
| 20260507151509 | 13 | 360 | 3.2 | 11.3 | 0.00 | 1.78 | 1.42 | 76 | 1008.0 |
| 20260507150035 | 13 | 19 | 4.8 | 11.3 | 0.00 | 1.78 | 1.42 | 81 | 1008.1 |
| 20260507144531 | 12 | 341 | 4.8 | 14.5 | 0.00 | 1.78 | 1.42 | 81 | 1007.9 |
| 20260507143011 | 11 | 337 | 3.2 | 11.3 | 0.00 | 1.78 | 1.42 | 86 | 1008.1 |
| 20260507141504 | 11 | 310 | 4.8 | 12.9 | 0.00 | 1.78 | 1.42 | 88 | 1008.2 |
| 20260507140108 | 11 | 325 | 3.2 | 14.5 | 0.00 | 1.78 | 1.42 | 92 | 1008.5 |
| 20260507134553 | 10 | 353 | 1.6 | 9.7 | 0.00 | 1.78 | 1.42 | 89 | 1008.3 |
| 20260507133101 | 10 | 355 | 1.6 | 8.0 | 0.00 | 1.78 | 1.42 | 90 | 1008.3 |
| 20260507131535 | 10 | 35 | 1.6 | 11.3 | 0.03 | 1.78 | 1.42 | 89 | 1008.2 |
| 20260507130024 | 9 | 35 | 3.2 | 11.3 | 0.08 | 1.78 | 1.42 | 89 | 1008.1 |
| 20260507124547 | 9 | 27 | 3.2 | 11.3 | 0.08 | 1.78 | 1.42 | 89 | 1008.2 |
| 20260507123036 | 9 | 8 | 6.4 | 17.7 | 0.08 | 1.78 | 1.42 | 90 | 1008.5 |
| 20260507121539 | 8 | 12 | 6.4 | 16.1 | 0.10 | 1.75 | 1.40 | 90 | 1008.8 |
| 20260507120049 | 8 | 26 | 6.4 | 16.1 | 0.10 | 1.70 | 1.35 | 90 | 1008.1 |
| 20260507114529 | 9 | 19 | 8.0 | 20.9 | 0.10 | 1.70 | 1.35 | 91 | 1008.3 |
| 20260507113108 | 9 | 6 | 8.0 | 24.1 | 0.13 | 1.70 | 1.35 | 91 | 1008.2 |
| 20260507111605 | 9 | 347 | 8.0 | 25.7 | 0.08 | 1.65 | 1.30 | 91 | 1008.9 |
| 20260507110025 | 9 | 16 | 8.0 | 20.9 | 0.03 | 1.60 | 1.24 | 91 | 1007.8 |
| 20260507104527 | 9 | 4 | 9.7 | 17.7 | 0.08 | 1.60 | 1.24 | 92 | 1007.3 |
| 20260507103116 | 9 | 17 | 12.9 | 24.1 | 0.13 | 1.57 | 1.22 | 93 | 1007.4 |
| 20260507101609 | 10 | 345 | 16.1 | 29.0 | 0.23 | 1.57 | 1.22 | 94 | 1007.1 |
| 20260507100107 | 10 | 331 | 12.9 | 25.7 | 0.36 | 1.57 | 1.22 | 95 | 1007.0 |
| 20260507094606 | 10 | 360 | 12.9 | 22.5 | 0.41 | 1.52 | 1.17 | 96 | 1006.6 |
| 20260507093105 | 10 | 343 | 9.7 | 22.5 | 0.43 | 1.42 | 1.09 | 96 | 1006.6 |
| 20260507091546 | 10 | 353 | 4.8 | 20.9 | 0.66 | 1.32 | 0.97 | 96 | 1006.9 |
| 20260507090019 | 11 | 3 | 11.3 | 22.5 | 0.81 | 1.22 | 0.86 | 96 | 1006.7 |
| 20260507084523 | 11 | 261 | 0.0 | 4.8 | 0.76 | 1.12 | 0.76 | 96 | 1006.5 |
| 20260507083009 | 11 | 258 | 4.8 | 12.9 | 0.64 | 0.99 | 0.64 | 96 | 1007.2 |
| 20260507081527 | 11 | 327 | 9.7 | 22.5 | 0.28 | 0.64 | 0.28 | 96 | 1006.8 |
| 20260507080023 | 11 | 277 | 8.0 | 19.3 | 0.03 | 0.38 | 0.03 | 96 | 1006.2 |
| 20260507074616 | 11 | 124 | 9.7 | 17.7 | 0.00 | 0.36 | 0.00 | 96 | 1005.9 |
| 20260507073102 | 11 | 124 | 8.0 | 14.5 | 0.00 | 0.36 | 0.00 | 96 | 1005.7 |
| 20260507071521 | 11 | 124 | 9.7 | 19.3 | 0.00 | 0.36 | 0.00 | 96 | 1005.9 |
| 20260507070121 | 11 | 124 | 9.7 | 20.9 | 0.00 | 0.36 | 0.00 | 96 | 1006.2 |
| 20260507064617 | 11 | 124 | 9.7 | 17.7 | 0.00 | 0.36 | 0.00 | 96 | 1006.2 |
| 20260507063026 | 11 | 124 | 4.8 | 14.5 | 0.00 | 0.36 | 0.00 | 96 | 1006.0 |
| 20260507061602 | 11 | 272 | 4.8 | 17.7 | 0.00 | 0.36 | 0.00 | 96 | 1006.2 |
| 20260507054533 | 11 | 282 | 6.4 | 19.3 | 0.00 | 0.36 | 0.00 | 96 | 1006.7 |
| 20260507053025 | 11 | 274 | 9.7 | 24.1 | 0.00 | 0.36 | 0.00 | 96 | 1007.0 |
| 20260507051604 | 11 | 284 | 12.9 | 30.6 | 0.00 | 0.36 | 0.00 | 96 | 1007.0 |
| 20260507050103 | 11 | 264 | 11.3 | 25.7 | 0.00 | 0.36 | 0.00 | 96 | 1007.2 |
| 20260507044600 | 11 | 124 | 16.1 | 37.0 | 0.00 | 0.36 | 0.00 | 96 | 1007.2 |
| 20260507043104 | 11 | 260 | 12.9 | 30.6 | 0.00 | 0.36 | 0.00 | 95 | 1007.1 |
| 20260507041540 | 11 | 274 | 14.5 | 30.6 | 0.00 | 0.36 | 0.00 | 95 | 1007.3 |
| 20260507040034 | 11 | 253 | 17.7 | 33.8 | 0.00 | 0.36 | 0.36 | 95 | 1007.5 |
| 20260507034551 | 11 | 273 | 19.3 | 33.8 | 0.00 | 0.36 | 0.36 | 95 | 1007.6 |
| 20260507033056 | 11 | 124 | 17.7 | 33.8 | 0.00 | 0.36 | 0.36 | 95 | 1007.6 |
| 20260507031618 | 11 | 266 | 17.7 | 32.2 | 0.00 | 0.36 | 0.36 | 95 | 1007.7 |